Theta_e
358 356 358 361 356 354 353 352 353 352 352 354 351 347 348 347 348 347 346 345 345 346 346 345 344 344 346 346 350 348 349 348 346 347 348 346 344 346 346 338 345 348 346
354 355 357 357 358 355 352 353 355 354 350 347 343 347 347 340 348 348 346 346 346 345 345 346 345 342 345 343 348 349 349 348 349 349 348 347 344 345 342 344 344 347 348
350 350 353 356 356 357 355 354 352 352 352 349 348 349 344 347 348 341 339 340 342 343 344 345 346 343 344 344 343 350 347 347 348 346 348 344 340 338 345 347 347 349 350
353 354 356 356 355 356 354 353 352 353 352 351 350 350 344 346 347 346 344 340 341 343 346 345 345 344 344 342 344 345 349 348 348 346 347 344 345 348 349 348 348 346 346
348 347 349 351 351 350 350 348 347 348 350 350 351 348 344 346 341 336 339 341 344 344 345 346 345 344 342 345 344 343 343 349 349 348 340 346 348 350 349 348 349 348 349
335 343 345 345 345 343 344 343 337 338 340 341 347 337 335 336 343 342 339 335 335 342 345 345 345 344 344 344 345 344 345 346 349 347 347 347 348 349 350 349 348 347 347
336 335 333 334 339 340 341 341 340 338 335 335 338 335 333 336 342 343 338 335 339 338 342 343 343 346 347 347 345 347 345 345 345 347 347 348 347 345 347 347 347 348 347
331 331 331 331 331 330 331 331 331 332 332 332 333 330 329 328 332 337 340 333 335 339 337 341 342 345 345 343 346 347 344 345 346 344 342 342 342 344 343 338 340 344 347
330 331 333 334 334 333 332 332 331 331 329 327 326 327 331 327 331 340 336 332 327 329 333 336 342 343 343 345 343 347 346 344 344 346 345 341 341 342 341 340 340 341 344
329 330 330 330 330 330 331 331 331 332 333 332 330 328 326 330 336 348 344 339 340 336 329 332 333 333 336 343 342 340 341 346 346 342 343 343 341 341 343 344 343 343 343
333 334 334 333 333 332 332 331 331 331 332 333 333 332 331 330 337 343 341 341 331 339 337 330 329 333 333 340 342 341 341 342 344 346 347 344 345 347 347 349 348 346 345
330 329 329 330 333 333 331 331 331 330 331 334 335 334 333 333 330 337 331 326 323 334 328 332 340 337 335 341 343 341 338 340 339 339 341 345 344 344 343 345 348 347 346
330 329 329 328 329 329 330 331 329 328 330 330 329 329 330 330 340 339 334 336 335 334 335 327 333 343 338 341 346 346 344 342 342 341 340 341 342 341 342 342 344 347 346
330 330 330 330 329 329 330 329 328 329 329 332 332 332 332 334 335 335 334 335 338 340 339 341 340 340 346 341 346 346 347 347 346 345 342 341 341 341 341 342 346 346 345
326 328 327 327 329 330 330 329 328 328 329 330 331 332 333 333 333 334 337 337 339 338 341 342 341 345 346 347 346 346 347 347 347 347 346 343 343 344 344 343 344 345 344
327 328 328 329 330 329 331 330 329 329 329 330 330 330 329 331 332 332 332 330 330 338 340 342 342 345 348 348 347 346 345 346 346 345 345 345 346 345 343 343 343 344 345
328 328 328 328 327 328 328 329 329 328 328 329 329 330 330 329 329 329 329 329 328 328 331 338 339 340 340 345 346 348 347 346 344 344 344 344 346 346 344 342 343 345 345
329 328 328 328 327 327 327 328 328 328 329 328 326 330 330 330 329 330 329 329 328 327 327 330 332 335 338 341 343 345 347 346 344 344 342 342 343 344 343 344 343 344 346
327 328 328 327 327 327 327 326 325 327 328 328 329 329 330 330 329 329 329 330 329 328 328 326 326 330 329 327 326 339 341 341 341 341 339 342 339 338 343 343 343 344 346
324 326 329 328 325 325 324 324 326 327 328 328 328 328 328 328 328 328 330 330 330 330 330 328 325 325 328 325 325 325 340 340 339 338 338 339 338 337 340 343 340 340 344
318 322 325 329 328 326 326 327 328 328 328 328 328 327 329 330 329 329 328 328 328 330 330 330 330 328 325 324 323 324 329 339 340 342 342 342 341 340 341 343 340 340 342
315 317 324 326 327 328 328 328 327 326 327 327 327 328 328 329 328 329 328 328 327 328 331 332 332 332 332 330 324 325 339 341 341 342 341 343 342 340 340 343 342 342 341
315 319 325 327 327 327 326 327 329 329 328 328 325 329 329 329 330 330 330 328 327 328 329 331 331 330 334 332 331 335 337 339 342 341 339 340 340 340 339 338 339 340 341
320 321 323 325 326 325 325 327 328 329 329 329 330 330 330 330 330 330 331 331 330 328 329 330 331 331 331 335 332 333 340 340 339 338 339 339 340 341 340 340 337 339 341
320 321 321 322 324 325 326 327 329 329 328 329 328 329 329 329 329 330 331 330 330 329 330 333 333 333 333 335 334 335 333 338 339 338 339 340 339 339 340 340 340 339 340
315 316 318 320 322 325 325 326 327 328 329 328 330 331 331 331 330 330 331 331 332 332 332 332 330 329 330 336 336 334 334 334 336 337 337 338 339 338 340 340 340 339 339
Wind_Speed
9 10 18 17 15 15 19 18 20 20 20 19 15 15 16 20 22 24 25 24 26 29 30 33 33 30 28 30 24 24 23 19 18 18 17 14 17 22 19 20 18 11 10
6 10 10 21 19 18 16 16 18 19 17 19 23 19 19 19 19 18 21 23 25 29 32 30 35 33 30 30 28 25 26 23 19 16 15 18 16 20 18 13 12 11 12
10 11 11 13 16 20 15 17 19 21 20 18 20 20 18 15 17 15 16 17 18 23 29 32 32 33 31 31 34 29 27 25 21 17 13 8 7 14 18 14 12 9 14
6 6 5 11 9 11 14 13 13 14 13 15 15 15 14 14 15 17 18 16 17 20 23 27 31 33 32 31 30 33 29 24 23 22 17 16 13 9 16 15 14 14 15
5 5 6 8 9 8 10 14 13 13 13 13 12 12 15 17 15 18 19 18 16 17 15 22 24 26 28 27 29 30 29 27 27 25 26 19 15 15 20 17 18 14 18
9 10 10 10 10 10 10 10 11 8 8 10 10 11 7 11 14 18 16 28 28 19 21 22 25 28 27 27 29 27 29 31 26 26 20 22 22 13 11 15 16 17 18
15 17 16 16 16 15 15 15 14 13 14 13 11 10 9 12 14 17 18 17 16 14 21 22 26 29 23 22 23 24 22 28 30 27 29 25 22 23 19 16 18 18 17
19 21 24 25 25 24 23 22 21 19 18 19 20 19 17 14 11 11 13 12 19 20 25 25 25 27 20 24 26 23 21 23 24 26 28 28 25 22 21 17 17 19 21
22 21 20 21 23 24 27 29 32 32 31 29 26 24 23 20 14 12 12 11 18 20 16 16 20 26 25 23 28 26 24 24 25 26 28 25 23 22 22 21 23 21 20
30 30 30 31 32 32 32 32 34 34 32 33 35 31 29 24 19 14 16 17 19 13 9 8 19 25 26 25 27 28 30 29 28 26 27 29 28 26 25 23 22 24 23
22 23 26 28 29 30 31 32 33 35 36 34 32 31 29 28 27 24 24 27 25 23 26 19 17 17 24 26 30 31 33 30 27 26 27 24 23 24 25 25 24 26 25
28 29 29 30 31 34 37 36 34 32 35 32 30 30 28 25 24 25 27 31 30 27 28 33 34 20 15 29 28 30 24 23 23 22 29 30 29 29 30 27 24 25 26
37 38 38 39 38 36 36 35 36 35 32 32 34 35 32 28 18 23 27 29 32 35 31 34 32 30 25 19 29 31 32 33 35 34 32 31 33 32 31 32 29 25 23
39 41 39 36 36 37 35 35 35 34 30 28 28 29 27 25 22 26 26 31 30 35 33 30 29 34 36 32 27 32 32 33 36 39 37 34 30 31 30 28 29 28 27
36 39 42 38 32 34 37 34 32 31 30 28 28 27 26 26 26 15 16 15 24 32 39 34 31 30 37 38 36 37 28 32 34 33 36 38 35 32 31 30 33 32 33
35 34 33 35 33 31 31 33 29 30 29 28 28 28 31 35 34 34 32 29 25 19 30 29 29 30 31 33 36 37 33 29 29 31 33 34 33 31 32 29 30 34 35
29 29 29 31 33 35 33 34 32 30 31 29 28 26 25 25 28 32 35 30 27 28 26 24 28 28 25 23 27 33 36 34 32 28 29 29 33 36 35 33 31 32 34
27 27 28 31 32 30 31 28 28 29 29 31 27 24 26 26 27 26 33 33 32 29 32 34 29 26 27 24 22 23 29 31 33 30 31 32 31 33 35 34 36 38 38
26 26 26 26 22 19 19 20 22 26 27 27 25 27 26 26 26 31 29 30 33 34 33 34 37 35 30 27 26 27 24 25 25 26 31 34 32 36 37 36 36 37 41
30 23 22 23 19 18 19 22 23 25 25 24 26 26 26 27 28 28 23 24 30 32 31 31 33 36 37 31 28 31 30 31 29 29 28 26 29 34 42 43 47 42 40
28 26 19 17 19 19 18 18 17 16 18 21 22 20 21 21 24 21 24 27 24 23 31 32 30 33 33 33 31 35 38 39 35 34 33 31 28 29 29 34 36 36 44
24 17 11 13 12 12 12 15 15 18 21 24 23 21 19 24 25 28 30 28 28 25 20 23 27 27 31 30 29 30 33 37 37 37 34 29 28 28 31 31 33 33 35
16 3 7 12 16 14 16 16 17 20 21 22 17 18 20 22 26 26 25 25 29 29 26 30 30 28 26 31 32 30 32 39 39 36 37 35 32 30 24 25 31 32 38
22 17 15 12 14 17 19 19 17 17 17 17 19 22 24 25 25 24 25 27 26 28 29 31 32 35 32 21 26 33 27 27 32 31 32 29 27 26 26 23 21 28 31
24 17 16 18 20 21 19 16 15 12 13 14 19 22 21 20 17 22 22 20 19 29 26 27 26 26 31 29 24 23 33 38 33 27 27 32 35 31 29 28 27 27 26
46 37 29 23 19 18 18 17 16 16 15 17 18 16 15 17 17 15 13 12 15 19 26 34 31 23 25 22 24 28 26 23 22 27 34 35 35 34 34 29 27 26 26
Wind_Direction
281 278 260 255 270 279 262 259 258 262 255 258 277 266 258 267 264 261 262 267 261 254 249 238 237 243 242 226 226 231 238 232 229 250 241 251 237 234 225 249 230 245 263
213 254 266 248 260 274 263 260 262 266 258 251 273 255 259 265 260 272 277 272 271 257 253 249 244 244 242 231 225 230 229 234 233 246 254 254 238 229 246 242 221 238 254
309 281 264 251 257 265 256 263 277 276 272 258 262 250 268 250 255 271 284 293 280 275 262 250 244 238 237 234 225 232 228 232 232 238 236 218 228 217 214 231 238 242 251
296 290 289 260 264 230 253 267 279 279 275 279 285 265 265 269 265 265 266 277 277 285 273 245 242 235 236 233 225 228 230 231 231 228 241 242 231 220 224 228 235 242 252
290 9 343 304 284 293 284 285 288 287 287 281 281 271 269 261 260 273 290 289 295 282 273 259 243 243 233 233 226 229 230 230 233 225 229 235 238 227 228 234 226 244 253
285 264 268 278 290 293 294 297 298 307 318 312 273 298 285 283 267 285 293 294 274 292 282 269 258 249 233 236 231 235 228 228 236 233 227 230 224 225 218 219 228 241 246
291 297 295 284 276 280 283 286 291 300 306 308 307 313 317 312 299 276 297 311 313 286 295 278 265 247 240 242 232 228 236 229 225 227 228 230 231 237 247 259 255 257 255
289 294 297 297 295 294 289 286 285 286 289 294 298 301 304 307 308 314 292 308 296 285 305 278 281 278 247 249 251 239 234 229 225 227 233 235 239 240 249 258 264 263 259
291 284 286 287 287 286 286 289 291 291 288 284 283 287 290 297 291 286 269 248 332 302 286 308 288 278 259 258 250 251 239 233 233 236 239 240 243 240 247 258 254 261 261
292 289 287 286 284 281 280 282 287 287 284 284 284 280 278 282 280 259 259 263 261 254 291 264 276 305 286 246 242 240 243 237 238 237 235 241 246 249 245 246 252 250 256
294 293 288 280 278 277 278 283 287 284 284 282 280 280 277 268 259 253 259 264 267 254 242 239 240 266 254 249 238 237 241 241 240 250 246 241 241 246 249 242 248 252 258
286 286 286 286 279 276 281 282 284 281 280 276 277 279 280 281 263 260 259 259 262 253 251 255 251 261 244 230 238 235 237 241 235 246 246 245 245 250 252 254 253 252 256
295 293 292 291 284 276 273 274 281 286 277 274 276 277 278 268 257 255 265 264 256 253 252 254 253 257 253 258 242 246 244 247 245 246 250 247 246 250 254 258 257 255 257
291 290 290 283 280 275 272 274 279 278 276 273 274 274 273 269 265 268 263 263 263 255 249 256 260 260 255 253 252 247 245 247 248 250 251 255 257 261 261 258 251 254 255
294 288 291 287 283 277 269 273 276 272 270 272 272 269 271 267 263 262 252 278 257 255 238 245 258 257 255 253 251 250 248 243 245 247 246 251 259 263 266 257 250 256 255
298 292 288 287 284 277 271 271 273 268 267 272 269 271 264 261 264 266 272 277 276 267 245 245 253 256 255 255 252 250 249 247 249 246 250 252 254 257 263 264 256 254 256
300 295 292 286 283 275 269 265 270 270 267 263 267 269 262 266 269 264 264 270 273 269 264 253 246 252 262 267 268 260 251 250 255 253 252 254 255 256 259 256 252 252 253
309 305 291 292 292 277 269 262 266 274 274 276 267 259 267 266 265 264 258 262 262 263 261 259 261 257 258 263 277 263 250 251 252 251 252 251 250 249 250 247 248 246 245
309 308 299 302 286 273 272 269 270 275 278 274 280 267 265 268 267 256 265 270 260 260 263 261 258 259 260 261 263 257 249 245 244 251 256 252 252 256 254 248 250 253 251
298 294 302 292 283 270 272 273 275 274 274 277 272 268 275 270 266 260 261 262 258 256 262 266 261 257 258 258 257 256 247 246 252 254 251 253 256 255 255 256 258 248 252
314 284 293 300 290 280 279 279 276 277 274 272 273 273 270 275 269 267 263 267 273 266 262 263 262 259 258 254 256 250 246 247 248 246 251 253 260 259 264 257 239 257 246
315 296 293 299 311 291 281 272 282 283 276 277 275 271 273 272 265 261 265 263 263 265 264 263 272 264 258 256 252 249 238 239 240 244 251 250 251 266 271 257 253 248 232
355 18 9 -0 342 327 316 304 295 297 274 293 270 277 283 277 274 270 268 265 259 255 265 263 262 272 269 256 253 252 247 243 241 249 253 251 254 255 266 257 249 247 244
42 36 11 1 339 337 329 318 309 299 307 297 288 290 280 279 280 278 273 267 271 258 266 267 263 266 262 255 248 241 244 242 246 247 244 246 247 250 254 264 263 251 253
31 20 358 354 353 352 349 342 333 314 300 300 301 284 284 287 284 280 280 274 269 261 263 252 255 286 249 248 256 261 244 243 243 245 239 240 248 256 260 260 263 262 264
43 41 33 25 20 6 2 355 350 343 328 317 318 308 303 288 283 280 279 266 267 263 257 253 267 261 244 260 258 252 252 248 246 247 248 249 251 252 252 257 263 264 271